Midland, MI

10:47 AM EST on February 26, 2017 (GMT -0500)
Barstow

Weather History for KIKW - November, 2011

Change the Weather History Date:

Saturday, November 19, 2011

  Actual Average (KMBS) Record (KMBS)
Temperature  
Mean Temperature 44 °F -  
Max Temperature 50 °F 42 °F 59 °F (2015)
Min Temperature 38 °F 29 °F 16 °F (2014)
Degree Days  
Heating Degree Days 21    
Moisture  
Dew Point 28 °F    
Average Humidity 51    
Maximum Humidity 76    
Minimum Humidity 41    
Precipitation  
Precipitation 0.00 in - - ()
Sea Level Pressure  
Sea Level Pressure 29.87 in    
Wind  
Wind Speed 9 mph (SSW)    
Max Wind Speed 17 mph    
Max Gust Speed 24 mph    
Visibility 10 miles    
Events      
Averages and records for this station are not official NWS values.
T = Trace of Precipitation, MM = Missing Value Source: NWS Daily Summary

Daily Weather History Graph

Daily Weather History Graph

Search for Another Location

Airport or City:

Trip Planner

Search our weather history database for the weather conditions in past years. The results will help you decide how hot, cold, wet, or windy it might be!

Date:

Astronomy

Nov. 19, 2011 Rise Set
Actual Time 7:35 AM EST 5:08 PM EST
Civil Twilight 7:04 AM EST 5:39 PM EST
Nautical Twilight 6:29 AM EST 6:14 PM EST
Astronomical Twilight 5:55 AM EST 6:48 PM EST
Moon 12:43 AM EST (11/19) 1:36 PM EST (11/19)
Length of Visible Light 10h 35m
Length of Day
9h 32m
Last Quarter, 38% of the Moon is Illuminated
Nov 19
Last Quarter
Nov 25
New
Dec 2
First Quarter
Dec 10
Full
Dec 17
Last Quarter

Hourly Weather History & Observations

Time (EST) Temp. Windchill Dew Point Humidity Pressure Visibility Wind Dir Wind Speed Gust Speed Precip Events Conditions
12:13 AM 40.6 °F 33.8 °F 18.5 °F 41% 29.93 in 10.0 mi SSW 11.5 mph - N/A   Clear
12:33 AM 39.7 °F 34.9 °F 18.9 °F 43% 29.94 in 10.0 mi SSW 6.9 mph - N/A   Clear
12:53 AM 39.9 °F 35.1 °F 19.2 °F 43% 29.93 in 10.0 mi South 6.9 mph - N/A   Clear
1:13 AM 39.4 °F 34.5 °F 19.4 °F 45% 29.93 in 10.0 mi South 6.9 mph - N/A   Clear
1:32 AM 39.4 °F 33.8 °F 19.9 °F 46% 29.93 in 10.0 mi SSW 8.1 mph - N/A   Clear
1:53 AM 39.0 °F 34.8 °F 20.1 °F 47% 29.93 in 10.0 mi South 5.8 mph - N/A   Clear
2:13 AM 38.8 °F 33.8 °F 20.3 °F 47% 29.93 in 10.0 mi SSW 6.9 mph - N/A   Clear
2:32 AM 38.8 °F 34.6 °F 20.8 °F 48% 29.93 in 10.0 mi SSW 5.8 mph - N/A   Clear
2:53 AM 38.8 °F 33.8 °F 20.8 °F 48% 29.93 in 10.0 mi SSW 6.9 mph - N/A   Clear
3:13 AM 39.2 °F 33.0 °F 20.7 °F 47% 29.93 in 10.0 mi South 9.2 mph - N/A   Clear
3:32 AM 39.2 °F 34.2 °F 20.8 °F 48% 29.93 in 10.0 mi South 6.9 mph - N/A   Clear
3:53 AM 39.4 °F 34.5 °F 21.0 °F 48% 29.93 in 10.0 mi South 6.9 mph - N/A   Clear
4:13 AM 39.7 °F 34.3 °F 21.2 °F 48% 29.92 in 10.0 mi South 8.1 mph - N/A   Clear
4:32 AM 40.1 °F 35.3 °F 21.2 °F 47% 29.92 in 10.0 mi South 6.9 mph - N/A   Clear
4:53 AM 41.0 °F 36.4 °F 21.4 °F 46% 29.92 in 10.0 mi South 6.9 mph - N/A   Mostly Cloudy
5:13 AM 42.3 °F 37.9 °F 21.2 °F 43% 29.92 in 10.0 mi South 6.9 mph - N/A   Overcast
5:32 AM 42.8 °F 40.1 °F 21.6 °F 43% 29.92 in 10.0 mi South 4.6 mph - N/A   Overcast
5:53 AM 43.3 °F 38.6 °F 21.4 °F 42% 29.92 in 10.0 mi South 8.1 mph - N/A   Overcast
6:13 AM 43.9 °F 38.8 °F 21.9 °F 42% 29.92 in 10.0 mi SSW 9.2 mph - N/A   Overcast
6:32 AM 44.4 °F 40.0 °F 21.9 °F 41% 29.92 in 10.0 mi South 8.1 mph - N/A   Overcast
7:13 AM 44.8 °F 39.9 °F 22.5 °F 41% 29.93 in 10.0 mi South 9.2 mph - N/A   Overcast
7:53 AM 45.3 °F 39.3 °F 23.2 °F 42% 29.93 in 10.0 mi SSW 12.7 mph 17.3 mph N/A   Overcast
8:13 AM 45.1 °F 39.9 °F 23.7 °F 43% 29.92 in 10.0 mi SSW 10.4 mph 18.4 mph N/A   Overcast
8:33 AM 45.1 °F 39.5 °F 24.1 °F 44% 29.92 in 10.0 mi South 11.5 mph 16.1 mph N/A   Overcast
8:53 AM 45.0 °F 38.5 °F 24.6 °F 45% 29.93 in 10.0 mi SSW 13.8 mph 19.6 mph N/A   Overcast
9:13 AM 45.7 °F 40.2 °F 25.0 °F 44% 29.92 in 10.0 mi SSW 11.5 mph 23.0 mph N/A   Mostly Cloudy
9:32 AM 45.3 °F 39.3 °F 25.7 °F 46% 29.92 in 10.0 mi SSW 12.7 mph 19.6 mph N/A   Scattered Clouds
9:53 AM 46.6 °F - 26.2 °F 45% 29.92 in 10.0 mi SSW 12.7 mph 18.4 mph N/A   Mostly Cloudy
10:12 AM 47.5 °F - 27.0 °F 45% 29.92 in 10.0 mi SSW 10.4 mph 19.6 mph N/A   Scattered Clouds
10:32 AM 48.4 °F - 27.3 °F 44% 29.92 in 10.0 mi SSW 12.7 mph 18.4 mph N/A   Mostly Cloudy
10:53 AM 46.9 °F - 27.5 °F 47% 29.93 in 10.0 mi SSW 10.4 mph 20.7 mph N/A   Overcast
11:13 AM 46.6 °F - 28.0 °F 49% 29.93 in 10.0 mi SSW 12.7 mph 17.3 mph N/A   Overcast
11:53 AM 46.8 °F - 29.1 °F 50% 29.92 in 10.0 mi SSW 8.1 mph 16.1 mph N/A   Overcast
12:12 PM 46.9 °F - 29.7 °F 51% 29.90 in 10.0 mi SSW 10.4 mph 18.4 mph N/A   Overcast
12:32 PM 47.1 °F - 30.2 °F 52% 29.89 in 10.0 mi South 11.5 mph - N/A   Overcast
12:53 PM 47.7 °F - 30.6 °F 52% 29.88 in 10.0 mi South 8.1 mph 19.6 mph N/A   Overcast
1:12 PM 48.4 °F - 31.1 °F 51% 29.86 in 10.0 mi SSW 12.7 mph 16.1 mph N/A   Overcast
1:33 PM 49.3 °F - 31.8 °F 51% 29.85 in 10.0 mi South 15.0 mph 21.9 mph N/A   Overcast
1:53 PM 49.3 °F - 32.0 °F 51% 29.85 in 10.0 mi SSW 11.5 mph - N/A   Overcast
2:33 PM 50.2 °F - 32.2 °F 50% 29.84 in 10.0 mi South 8.1 mph - N/A   Overcast
2:53 PM 50.4 °F - 32.7 °F 51% 29.84 in 10.0 mi SSW 17.3 mph 24.2 mph N/A   Overcast
3:12 PM 50.0 °F - 32.9 °F 52% 29.84 in 10.0 mi SSW 10.4 mph 17.3 mph N/A   Overcast
3:33 PM 50.0 °F - 33.3 °F 53% 29.84 in 10.0 mi SSW 6.9 mph - N/A   Overcast
4:13 PM 50.0 °F - 33.4 °F 53% 29.83 in 10.0 mi South 8.1 mph - N/A   Overcast
4:32 PM 49.8 °F - 33.6 °F 54% 29.84 in 10.0 mi SSW 6.9 mph - N/A   Overcast
4:53 PM 49.6 °F - 33.8 °F 54% 29.83 in 10.0 mi South 9.2 mph - N/A   Overcast
5:13 PM 49.8 °F - 33.8 °F 54% 29.81 in 10.0 mi South 10.4 mph 16.1 mph N/A   Overcast
5:33 PM 49.8 °F - 33.8 °F 54% 29.81 in 10.0 mi South 8.1 mph - N/A   Overcast
5:53 PM 49.5 °F - 34.3 °F 56% 29.80 in 10.0 mi South 8.1 mph - N/A   Overcast
6:13 PM 49.5 °F - 34.5 °F 56% 29.80 in 10.0 mi SSE 3.5 mph - N/A   Overcast
6:32 PM 49.3 °F - 34.7 °F 57% 29.79 in 10.0 mi SSE 10.4 mph - N/A   Overcast
6:53 PM 49.5 °F - 35.8 °F 59% 29.77 in 10.0 mi SSE 10.4 mph 17.3 mph N/A   Overcast
7:13 PM 49.8 °F - 37.6 °F 63% 29.78 in 10.0 mi South 12.7 mph 16.1 mph N/A   Overcast
7:33 PM 50.0 °F - 38.7 °F 65% 29.78 in 10.0 mi South 15.0 mph 20.7 mph N/A   Overcast
7:52 PM 50.0 °F - 39.2 °F 66% 29.77 in 10.0 mi South 16.1 mph 21.9 mph N/A   Overcast
8:13 PM 49.3 °F - 40.1 °F 71% 29.76 in 10.0 mi SSW 12.7 mph 23.0 mph N/A   Drizzle
8:32 PM 49.5 °F - 39.7 °F 69% 29.76 in 10.0 mi SSW 15.0 mph 23.0 mph N/A   Overcast
8:53 PM 50.0 °F - 39.7 °F 68% 29.74 in 10.0 mi SSW 15.0 mph 20.7 mph N/A   Overcast
9:13 PM 49.5 °F - 40.5 °F 71% 29.74 in 10.0 mi SSW 11.5 mph 17.3 mph N/A   Overcast
9:32 PM 49.3 °F - 41.9 °F 76% 29.73 in 10.0 mi SSW 12.7 mph 18.4 mph N/A   Overcast
9:53 PM 50.0 °F - 41.9 °F 74% 29.73 in 10.0 mi SSW 10.4 mph 16.1 mph N/A   Overcast
10:13 PM 50.2 °F - 43.2 °F 77% 29.74 in 10.0 mi SSW 10.4 mph 19.6 mph N/A   Drizzle
10:32 PM 50.0 °F - 44.2 °F 81% 29.74 in 7.0 mi SW 9.2 mph 19.6 mph N/A Rain Rain
10:53 PM 49.6 °F - 45.0 °F 84% 29.73 in 7.0 mi SSW 10.4 mph 17.3 mph N/A   Drizzle
11:13 PM 49.5 °F - 45.1 °F 85% 29.73 in 10.0 mi SSW 10.4 mph - N/A Rain Light Rain
11:32 PM 50.0 °F - 45.5 °F 85% 29.73 in 10.0 mi SSW 10.4 mph - N/A   Overcast
11:53 PM 50.5 °F - 45.7 °F 83% 29.72 in 10.0 mi SSW 9.2 mph - N/A   Overcast